INTELSAT 37E (IS-37E)

Last updated on Tue Sep 22 2026 00:03:14 GMT+0000 (Coordinated Universal Time)

1 42950U 17059A 26264.34295002 .00000000 00000+0 00000+0 0 9995 2 42950 0.0235 175.9743 0002818 5.8493 283.8636 1.00268345 33030
UTC large
Height (km)
Speed (km/s)
/
Latitude / Longitude
Inclination (degrees)
Orbital Period (minutes)
Azimuth
Elevation
Range (km)
Doppler Factor

Next 0 passes for location: London (51.5072 / 0.1276)

No passes found over London.
INTELSAT 37E (IS-37E)